Regional Weather Roundup
Issued by NWS Upton, NY

Current Version | Previous Version | Graphics & Text | Print | Product List | Glossary Off
Versions: 1 2 3 4 5 6 7 8 9 10 11 12 13 14 15 16 17 18 19 20 21 22 23 24 25 26 27 28

000
ASUS41 KOKX 300505
RWROKX

REGIONAL WEATHER ROUNDUP
NATIONAL WEATHER SERVICE NEW YORK NY
100 AM EDT THU OCT 30 2014

NOTE: "FAIR" INDICATES FEW OR NO CLOUDS BELOW 12,000 FEET WITH NO
SIGNIFICANT WEATHER AND/OR OBSTRUCTIONS TO VISIBILITY.

NYZ071-072-176-178-NJZ106-104-300600-
NEW YORK CITY METRO AREA


CITY           SKY/WX    TMP DP  RH WIND       PRES   REMARKS
CENTRAL PARK   CLEAR     51  45  79 CALM      29.97S
LAGUARDIA APRT PTCLDY    53  46  77 W5        29.94F
KENNEDY INTL   PTCLDY    52  45  77 NW6       29.96S
NEWARK/LIBERTY PTCLDY    50  47  89 CALM      29.95S
BRNX BOT. GARD   N/A     50  46  87 CALM      29.94F
TETERBORO      CLEAR     48  45  89 CALM      29.94S
$$

NYZ177-179-078>081-300600-
LONG ISLAND NEW YORK

CITY           SKY/WX    TMP DP  RH WIND       PRES   REMARKS
FARMINGDALE    MOCLDY    52  47  83 NW3       29.95S
ISLIP          MOCLDY    50  47  89 NW5       29.92F
SHIRLEY        LGT RAIN  50  47  89 NW5       29.94F
WESTHAMPTON    CLOUDY    52  46  80 CALM      29.94S
MONTAUK POINT    N/A     56  42  59 NW12      29.93S
$$

NYZ052-065-067-300600-
HUDSON VALLEY

CITY           SKY/WX    TMP DP  RH WIND       PRES   REMARKS
WHITE PLAINS   PTCLDY    47  45  93 CALM      29.93S
NEWBURGH       CLEAR     43  43 100 CALM      29.95S
MONTGOMERY     FOG       38  37  97 SW3       29.94S VSB 1/4
POUGHKEEPSIE   FOG       42  41  96 CALM      29.93S VSB 1/4
ALBANY         CLOUDY    47  42  83 CALM      29.92S
$$

NJZ001-105-106-008-010-013-015-019>022-104-300600-
NEW JERSEY

CITY           SKY/WX    TMP DP  RH WIND       PRES   REMARKS
NEWARK/LIBERTY PTCLDY    50  47  89 CALM      29.95S
TETERBORO      CLEAR     48  45  89 CALM      29.94S
CALDWELL       FOG       43  41  93 CALM      29.96S VSB 3/4
MORRISTOWN     FOG       43  39  87 CALM      29.96R VSB 1/2
SOMERVILLE     FOG       41  40  96 CALM      29.95S VSB 1/4
SUSSEX         FOG       44  41  89 CALM      29.95F VSB 1/4
ANDOVER          N/A     43  43 100 CALM      29.95F
TRENTON        FOG       48  47  96 NW6       29.96F VSB 1/4
MILLVILLE      FAIR      44  43  96 CALM      29.99R
ATLANTIC CITY  PTCLDY    50  47  89 W3        29.98R
WRIGHTSTOWN    CLEAR     48  48  99 W6        29.95F
TOMS RIVER     PTCLDY    45  43  93 CALM      29.97S
BELMAR         PTCLDY    48  43  81 W3        29.96S
$$

PAZ047>061-062-071-300600-
EASTERN PENNSYLVANIA

CITY           SKY/WX    TMP DP  RH WIND       PRES   REMARKS
PHILADELPHIA   PTCLDY    50  47  89 CALM      29.98S
ALLENTOWN      FOG       47  46  97 CALM      29.96F VSB 1/4
SCRANTON       CLOUDY    48  44  86 CALM      29.94S
$$

CTZ002-004>006-009-010-012-RIZ004-006-007-MAZ004-011-015-300600-
SOUTHERN NEW ENGLAND
 IN CT

CITY           SKY/WX    TMP DP  RH WIND       PRES   REMARKS
BRADLEY INTL   PTCLDY    46  39  76 NW5       29.91S
HARTFORD       PTCLDY    49  39  68 VRB6      29.92F
DANBURY        FOG       42  39  89 CALM      29.94S VSB 3/4
WTRBRY/OXFORD  PTCLDY    43  37  81 NW3       29.93S
BRIDGEPORT     MOCLDY    49  46  90 NW5       29.93S
MERIDEN        PTCLDY    45  40  82 CALM      29.93S
NEW HAVEN      MOCLDY    51  45  79 N3        29.93S
CHESTER        FAIR      48  41  76 NW7       29.93R
GROTON         MOCLDY    51  40  65 NW9       29.91S
WILLIMANTIC    PTCLDY    50  39  66 NW5       29.92S

 IN RI

CITY           SKY/WX    TMP DP  RH WIND       PRES   REMARKS
PROVIDENCE     MOCLDY    53  46  77 W8        29.91R
BLOCK ISLAND   CLOUDY    54  45  71 NW7       29.91R
WESTERLY       CLOUDY    53  45  74 NW6       29.91S

 IN MA

CITY           SKY/WX    TMP DP  RH WIND       PRES   REMARKS
BOSTON         MOCLDY    52  44  74 W12       29.88R
WORCESTER      PTCLDY    44  39  82 W9        29.89S
WESTFIELD      FOG       39  37  92 CALM      29.92S VSB 3/4
PROVINCETOWN   CLOUDY    52   0  11 W9        29.88S
NANTUCKET      CLOUDY    55  48  77 NW18G26   29.87R
$$

ANZ330-335-338-340-345-350-353-355-300600-
COASTAL MARINE OBSERVATIONS


STATION/POSITION TIME  SKY/WX   TEMP    WIND        PRES    VSBY  WAVE
                                AIR SEA DIR/SP/G                  HT/PER
                 (UTC)          (F)     (DEG/KT/KT) (MB)    (MI)  (FT/S)
NY HARB ENTRANCE 0500            56 61  310/ 14/ 16 1014.1          2/ 6
4S FIRE IS       0500               62                N/A           3/ 7
20S FIRE ISLAND  0500            58 62  330/ 16/ 19 1013.2          4/ 6
23SW MTP         0500                                 N/A           4/ 7
HUDSON CANYON    0500            59 65  330/ 16/ 19 1013.0          5/ 6
EXECUTION ROCKS  0500            54 60  320/  6/  8   N/A
WESTERN LI SOUND 0500            54     310/  8/ 10   N/A           0
CENTRAL LI SOUND 0400            55 61  340/ 12/ 14   N/A           1/ 4
EASTERN LI SOUND 0400            56 62  320/ 10/ 14   N/A
ROBBINS REEF     0500            52     270/  6/  7 1013.1
$$


>>>>>>>>>>>>>>>>>>>>>>>>>>>> KEY <<<<<<<<<<<<<<<<<<<<<<<<<<<
>                                                          <
>     SKY/WX - SKY CONDITION/PRESENT WEATHER               <
>     TMP    - TEMPERATURE IN FAHRENHEIT                   <
>     DP     - DEWPOINT IN FAHRENHEIT                      <
>     RH     - RELATIVE HUMIDITY IN PERCENT                <
>     WIND   - DIRECTION AND SPEED IN MPH                  <
>     PRES   - MEAN SEA LEVEL PRESSURE IN INCHES OF HG     <
>     WCI    - WIND CHILL INDEX                            <
>     VSB    - VISIBILITY IN MILES                         <
>     HX     - HEAT INDEX                                  <
>     TC     - TEMPERATURE IN CELSIUS                      <
>     VRB    - VARIABLE WIND DIRECTION                     <
>                                                          <
>>>>>>>>>>>>>>>>>>>>>>>>>>>> KEY <<<<<<<<<<<<<<<<<<<<<<<<<<<





USA.gov is the U.S. government's official web portal to all federal, state and local government web resources and services.